Location: Sungai Jaoh
(2.9167°N, 113.9167°E)
Time: 06:06:25
(UTC+00:00)

ADEOS Rocket - Pass Details

Date: 30 November 2020
Orbit: 858 x 1307 km, 98.7° (Epoch: 25 January)

Event Time Altitude Azimuth Distance (km) Brightness Sun altitude
Rises 21:40:42 0° 198° (SSW) 3,479 6.0 -8.7°
Reaches altitude 10° 21:43:42 10° 215° (SW) 2,580 5.1 -8.0°
Maximum altitude 21:47:41 20° 260° (W) 2,045 4.2 -7.0°
Drops below altitude 10° 21:51:53 10° 304° (NW) 2,739 4.7 -6.1°
Enters shadow 21:54:18 - 317° (NW) 3,465 5.3 -5.5°
